Wind_Speed
21 21 21 22 23 23 23 22 21 22 22 23 23 23 22 22 22 22 21 20 20 20 19 18 18 17 16 17 16 16 15 15 15 15 15 14 13 12 11 10 9 8 7 6 6 6 6 6 5
21 22 23 23 24 23 23 22 22 22 23 24 24 24 23 23 23 23 22 21 21 22 21 20 20 19 18 18 18 17 17 17 17 17 16 15 15 14 13 11 11 10 8 7 7 7 7 6 6
22 23 24 25 25 24 23 22 22 23 24 25 25 25 25 24 24 24 23 23 23 23 23 22 21 21 21 20 19 19 19 18 18 18 18 17 16 15 14 13 12 11 10 9 8 8 7 7 7
24 25 26 26 26 24 24 24 23 24 24 26 26 26 26 25 25 25 24 24 24 24 24 24 23 23 22 22 21 21 20 20 20 20 19 18 18 17 16 15 14 13 12 11 10 9 9 8 8
25 26 27 27 26 25 26 25 25 25 26 26 27 27 26 26 26 26 26 26 25 25 25 25 25 25 24 24 23 22 22 21 21 21 21 20 19 19 18 17 16 14 13 12 11 11 10 10 9
27 28 29 28 27 27 27 27 27 27 27 28 28 28 28 28 28 28 28 27 27 26 26 26 26 26 26 25 24 24 23 23 22 22 22 22 21 21 20 19 18 17 15 14 13 12 12 11 11
29 30 30 29 29 29 28 28 28 28 29 29 30 30 30 29 29 29 29 29 29 28 28 28 28 27 27 27 26 26 25 24 24 23 23 23 22 22 22 21 20 19 18 17 15 15 14 13 13
30 31 31 31 32 31 30 30 30 30 30 31 32 32 31 31 31 31 31 31 31 30 30 29 30 29 29 28 28 27 27 26 25 25 24 24 24 23 23 23 22 21 20 19 18 17 16 15 15
32 33 32 33 33 33 32 32 32 32 32 33 33 33 33 33 33 33 33 34 33 32 31 31 31 31 31 30 30 29 29 28 27 26 26 26 25 24 24 24 24 23 22 21 20 19 18 18 17
34 35 33 34 34 34 34 34 34 35 35 35 35 35 36 36 36 35 35 36 35 35 34 34 32 32 33 33 32 32 31 31 30 29 28 27 27 26 26 25 25 25 24 23 22 21 20 20 19
35 35 35 35 36 36 36 36 36 37 37 37 38 38 38 38 38 38 38 38 37 37 36 37 35 34 34 35 34 34 33 33 32 31 30 29 29 28 27 27 26 26 26 25 24 23 22 22 21
36 36 37 37 37 37 37 37 37 38 38 39 39 40 40 40 40 40 40 40 39 39 39 39 38 37 36 36 36 36 35 35 34 33 32 32 31 30 29 28 28 27 27 26 26 25 25 24 24
36 37 38 38 39 39 39 39 39 39 39 39 40 41 42 42 42 43 43 42 41 41 41 41 41 40 39 38 37 37 37 37 36 35 34 33 33 32 31 31 30 29 29 28 27 27 26 26 25
35 36 37 38 39 39 39 40 40 40 40 40 41 42 43 43 44 44 44 44 44 43 43 42 42 42 42 41 40 39 39 39 38 38 37 36 35 34 33 33 32 32 31 30 29 28 28 27 27
34 36 37 37 38 38 39 40 41 41 41 41 42 42 44 45 45 45 45 45 45 45 45 44 44 44 44 44 43 43 42 41 41 40 39 38 37 36 35 35 35 34 33 32 31 30 29 29 28
32 34 36 37 38 38 39 40 40 41 42 42 43 43 44 45 46 46 47 47 47 47 47 46 46 46 46 46 46 46 45 43 43 43 42 41 40 39 38 37 37 36 35 34 33 32 31 31 30
30 32 34 35 36 37 39 40 40 41 42 42 42 44 45 45 46 47 48 48 48 48 48 48 48 48 48 48 48 47 46 46 45 46 45 44 43 42 40 39 39 38 37 37 35 34 33 32 31
29 31 32 33 34 36 37 39 40 41 42 42 42 43 45 46 46 47 48 49 49 50 50 50 50 49 49 49 49 49 48 47 47 47 47 46 45 44 43 42 41 40 40 39 38 36 36 34 33
28 29 30 31 32 34 35 37 39 40 41 42 42 42 44 46 47 47 48 49 50 50 51 51 51 51 51 51 51 51 50 49 48 48 48 48 48 47 46 45 43 42 42 41 40 39 38 37 36
27 28 28 29 31 32 33 34 36 38 39 40 41 42 43 45 46 47 47 48 49 50 50 51 51 51 51 51 52 52 52 51 51 49 50 49 48 48 48 47 46 45 44 43 42 41 40 38 38
26 26 27 27 29 30 32 34 35 36 38 39 40 40 41 42 44 45 46 47 48 49 50 51 51 51 51 51 52 53 53 53 53 53 50 49 50 49 50 49 48 48 47 45 44 43 42 41 40
26 26 26 28 28 29 30 32 33 34 35 37 38 39 39 40 42 43 45 46 47 48 48 49 50 50 51 51 52 53 54 54 54 53 53 52 51 50 51 51 49 48 48 48 47 46 45 43 42
25 25 25 26 27 28 29 31 32 33 33 35 36 37 38 39 40 42 43 45 46 47 47 48 50 50 50 50 51 53 53 54 55 54 53 53 51 50 51 51 51 51 50 50 49 48 47 46 45
23 24 23 23 24 25 27 30 31 32 33 34 35 36 38 39 40 41 43 45 46 46 47 48 49 50 50 50 51 52 53 54 55 55 56 55 54 52 51 51 51 51 50 50 50 50 49 48 46
23 22 23 23 23 24 24 28 30 30 31 33 34 35 37 38 39 40 42 44 45 46 47 48 48 49 50 51 52 52 52 53 55 56 56 56 55 54 53 52 52 53 52 51 51 50 50 50 49
22 22 22 24 24 24 24 25 27 29 30 31 33 35 36 37 38 40 41 43 44 45 47 48 49 49 50 51 52 53 54 54 55 55 55 55 55 55 54 53 53 54 54 53 52 52 51 51 51
21 22 22 23 25 25 25 24 26 28 29 30 31 33 35 36 37 39 41 42 43 44 46 48 49 50 50 50 51 53 54 54 55 55 55 55 55 56 55 55 55 55 54 55 54 54 53 53 53
21 21 22 23 24 25 26 26 25 25 27 29 30 31 33 34 36 38 40 42 44 45 45 47 49 50 51 51 52 53 54 55 55 55 55 56 55 56 57 59 57 57 56 56 56 55 54 54 53
21 21 22 23 24 25 27 26 25 25 26 28 29 31 32 33 35 37 39 40 42 44 45 47 48 49 51 52 52 52 53 54 54 54 55 56 57 56 56 57 58 57 57 56 56 56 55 55 54
22 21 21 22 23 24 26 26 24 26 26 27 28 30 32 33 35 37 38 39 40 41 43 45 47 49 50 52 52 51 52 53 54 54 54 55 55 57 57 57 57 57 58 57 57 57 57 55 54
Wind_Direction
249 249 248 247 247 245 245 242 240 237 236 235 234 234 234 235 233 233 232 229 227 224 223 221 219 218 216 216 215 213 212 211 210 210 209 206 204 203 201 199 197 194 193 193 191 186 185 183 180
249 248 248 248 247 246 245 243 240 238 237 235 234 233 233 234 234 233 232 230 229 226 224 223 222 220 219 218 218 217 215 214 214 213 213 211 210 209 207 207 205 203 201 199 198 197 199 198 195
250 249 249 248 248 248 248 245 242 239 238 236 235 234 234 235 234 233 232 231 230 228 227 226 224 224 222 220 220 219 219 217 216 216 216 215 215 214 213 213 212 211 210 209 206 206 207 207 204
252 250 250 250 249 249 250 247 244 242 240 239 237 236 236 236 235 234 232 232 231 229 228 227 226 225 224 223 223 223 221 219 218 218 218 218 217 217 217 216 216 216 216 216 215 214 215 214 212
252 251 251 252 252 251 250 248 244 243 242 241 240 239 237 236 236 235 233 233 232 231 230 228 227 226 226 226 226 225 224 223 222 222 221 220 221 220 220 219 219 219 220 221 221 220 221 221 218
254 254 254 254 254 252 250 248 245 243 242 241 241 240 239 237 237 235 234 233 232 231 231 230 229 228 227 227 228 227 226 225 224 224 224 224 224 223 223 223 222 222 223 225 225 225 225 226 224
256 256 257 257 255 252 250 248 246 244 242 242 241 241 240 238 238 236 235 235 234 233 232 232 230 229 229 228 228 228 227 226 226 226 227 226 227 225 225 225 226 225 226 227 228 229 229 228 228
257 257 257 256 255 252 251 249 246 245 244 243 242 241 241 239 238 237 236 235 235 234 234 234 232 231 230 230 230 229 229 229 228 227 227 228 228 228 227 227 228 229 229 230 231 231 231 230 230
257 257 258 257 255 252 250 249 247 245 244 244 243 242 242 240 239 238 237 236 235 234 234 234 233 232 232 231 231 232 231 230 231 230 229 229 229 229 229 229 229 230 231 232 232 232 232 232 233
256 258 258 258 256 253 251 250 249 246 244 244 244 243 242 240 239 239 238 237 236 235 234 234 234 233 233 233 232 233 232 232 232 232 232 232 231 230 231 231 231 231 232 233 233 233 234 234 235
257 258 257 257 256 254 252 250 250 248 246 245 244 243 242 242 240 238 238 238 237 236 235 235 235 234 234 234 233 233 232 233 233 232 233 233 233 232 233 234 233 233 234 234 234 235 235 236 236
256 256 256 256 255 254 252 250 249 249 247 246 244 243 242 241 241 239 238 237 237 237 236 236 235 235 235 234 234 234 233 233 233 233 233 234 234 234 234 235 235 236 236 236 236 236 237 237 238
257 255 255 255 255 254 252 250 249 248 246 245 244 243 242 241 240 239 238 237 237 237 237 236 235 235 236 236 235 235 235 234 234 234 234 235 235 235 235 236 236 237 238 239 238 237 238 239 240
258 256 255 255 256 255 253 250 248 247 246 245 245 244 243 242 240 240 239 238 238 238 237 236 236 236 236 236 236 236 236 235 235 235 235 235 236 236 236 236 236 237 238 239 240 240 240 240 241
261 258 256 256 256 255 253 250 248 247 246 245 245 244 243 242 241 241 240 239 239 238 238 238 237 237 237 237 237 237 237 237 236 236 236 236 236 236 236 236 237 237 238 238 240 241 242 243 243
265 263 259 256 255 254 253 251 249 248 247 246 245 244 244 243 242 242 241 240 240 239 239 239 238 238 237 237 238 238 238 237 236 237 237 237 237 236 236 236 237 238 238 239 240 241 243 244 244
267 266 263 259 257 255 253 252 250 248 247 246 245 244 244 243 242 242 241 241 240 239 239 239 239 238 238 238 238 238 239 238 237 237 238 237 237 237 236 237 238 238 239 239 240 241 243 244 245
268 267 264 261 258 256 254 252 250 248 246 245 244 244 244 243 242 242 242 241 241 240 239 239 239 238 238 237 237 237 238 238 238 238 238 237 237 238 238 238 238 238 239 240 241 242 242 244 245
270 268 266 264 260 258 256 253 250 248 247 246 246 246 245 244 243 242 242 242 241 241 240 239 239 238 237 237 237 237 237 237 237 238 239 238 238 237 238 238 238 239 239 240 241 242 243 244 245
270 269 267 265 262 260 257 255 253 249 248 248 248 248 248 245 243 242 241 241 241 241 240 239 239 238 238 237 237 237 237 237 237 238 239 238 238 239 238 239 239 239 239 239 240 241 243 243 244
272 270 268 267 264 262 260 256 254 252 250 248 248 248 248 245 244 242 241 240 240 240 239 239 239 239 239 238 237 237 236 237 237 238 239 238 238 238 238 238 239 239 240 240 241 242 243 244 244
274 272 271 269 266 263 260 259 256 254 252 250 248 248 248 247 244 243 241 240 239 239 239 238 238 239 239 239 238 237 236 237 237 238 239 238 239 239 239 237 238 240 241 241 241 241 243 244 244
279 276 275 273 267 265 263 261 259 256 254 252 249 248 247 246 244 243 242 241 239 239 239 238 238 239 238 238 238 238 237 237 238 238 239 239 239 239 239 239 239 240 240 241 241 241 242 243 245
283 278 276 275 271 268 265 263 262 260 256 254 251 248 247 246 244 243 242 241 241 240 239 239 239 239 239 238 238 238 238 238 238 239 239 240 240 240 239 239 239 239 240 241 241 242 243 244 245
284 280 277 277 273 270 267 266 264 262 260 257 254 250 249 248 246 245 244 242 241 241 241 240 240 241 241 240 239 238 238 238 239 239 240 241 241 241 241 241 240 240 241 241 242 243 244 245 245
284 281 280 278 274 271 272 270 267 264 262 260 257 253 252 250 249 247 245 243 243 243 242 242 241 241 241 241 241 241 240 240 240 240 241 242 242 242 243 242 241 241 241 242 242 242 243 244 244
284 282 282 280 277 275 273 273 269 266 263 262 260 256 254 253 251 250 248 246 245 244 244 244 243 241 242 242 242 242 242 242 242 242 242 243 243 242 243 243 243 242 243 243 242 242 243 244 244
290 288 285 284 282 282 278 275 274 268 264 262 261 257 255 255 253 252 250 249 247 245 245 244 243 243 242 242 243 243 243 243 243 243 243 244 244 244 243 244 245 243 242 243 243 243 243 244 244
297 292 286 284 283 282 281 278 275 271 268 266 265 261 258 257 256 254 252 250 250 248 247 246 245 244 243 243 243 243 243 243 243 243 243 244 244 245 245 245 245 244 242 242 243 242 242 244 245
297 294 289 285 285 284 282 280 277 273 272 270 269 264 260 259 258 257 255 253 251 250 250 248 247 246 245 243 241 242 242 242 242 242 243 244 245 245 245 245 245 245 244 244 243 243 242 243 244
Height
5816 5817 5818 5819 5820 5820 5821 5824 5826 5828 5829 5830 5831 5833 5834 5836 5839 5842 5842 5842 5843 5845 5846 5847 5849 5850 5851 5853 5854 5855 5857 5858 5859 5861 5862 5863 5864 5865 5866 5866 5867 5868 5868 5869 5869 5870 5870 5871 5872
5811 5812 5813 5814 5814 5815 5818 5820 5822 5823 5824 5825 5827 5828 5830 5831 5833 5835 5837 5838 5840 5841 5843 5844 5846 5847 5849 5850 5852 5853 5854 5856 5857 5859 5860 5861 5862 5863 5864 5865 5866 5866 5867 5868 5868 5869 5870 5871 5871
5806 5807 5808 5808 5809 5811 5813 5815 5817 5818 5819 5820 5822 5823 5825 5827 5829 5831 5832 5834 5836 5838 5839 5841 5843 5844 5846 5847 5849 5850 5852 5853 5855 5856 5858 5859 5860 5861 5862 5863 5864 5865 5866 5867 5867 5868 5869 5870 5870
5800 5801 5802 5803 5804 5807 5808 5810 5811 5813 5814 5815 5817 5819 5821 5823 5825 5827 5828 5830 5832 5834 5835 5837 5839 5840 5842 5844 5846 5847 5849 5850 5852 5853 5855 5856 5858 5859 5860 5861 5862 5863 5864 5865 5866 5867 5868 5868 5869
5793 5794 5795 5796 5799 5801 5802 5804 5805 5807 5809 5810 5812 5814 5816 5818 5820 5822 5824 5825 5827 5829 5831 5833 5835 5836 5838 5840 5842 5844 5846 5847 5849 5850 5852 5853 5855 5856 5857 5859 5860 5861 5862 5863 5864 5865 5866 5867 5867
5786 5787 5789 5790 5793 5794 5795 5797 5799 5801 5802 5804 5806 5808 5810 5812 5814 5816 5818 5820 5822 5824 5826 5828 5830 5832 5834 5836 5838 5840 5842 5844 5845 5847 5848 5850 5851 5853 5854 5856 5857 5858 5860 5861 5862 5863 5864 5865 5866
5779 5780 5782 5784 5786 5787 5788 5790 5792 5794 5796 5798 5800 5802 5804 5806 5809 5811 5813 5815 5817 5819 5821 5823 5825 5827 5829 5831 5834 5836 5838 5839 5841 5843 5845 5846 5848 5849 5851 5852 5854 5855 5857 5858 5859 5860 5861 5862 5863
5771 5773 5774 5776 5777 5779 5781 5783 5785 5787 5788 5790 5792 5795 5797 5800 5802 5804 5806 5809 5811 5813 5815 5818 5820 5822 5824 5826 5828 5831 5833 5835 5837 5839 5840 5842 5844 5845 5847 5849 5850 5852 5853 5855 5856 5857 5858 5859 5860
5761 5764 5765 5768 5769 5771 5773 5775 5777 5779 5781 5782 5784 5787 5790 5792 5795 5797 5800 5802 5804 5807 5809 5811 5814 5816 5818 5820 5823 5825 5827 5830 5832 5834 5836 5838 5839 5841 5843 5844 5846 5848 5849 5851 5852 5854 5855 5856 5857
5751 5754 5758 5759 5760 5762 5764 5766 5768 5770 5772 5774 5776 5779 5781 5784 5787 5789 5792 5794 5797 5799 5802 5804 5807 5809 5812 5814 5816 5819 5821 5824 5826 5828 5830 5832 5834 5836 5838 5840 5841 5843 5845 5847 5848 5849 5851 5852 5854
5741 5745 5748 5748 5750 5751 5753 5756 5758 5760 5763 5765 5768 5770 5772 5775 5778 5781 5783 5786 5789 5792 5795 5797 5800 5802 5805 5807 5810 5812 5815 5817 5820 5823 5825 5827 5829 5831 5833 5835 5836 5838 5840 5842 5843 5845 5846 5848 5849
5731 5734 5736 5737 5739 5741 5743 5745 5747 5749 5753 5755 5757 5760 5762 5765 5768 5771 5774 5777 5781 5784 5786 5789 5792 5795 5797 5800 5803 5805 5808 5810 5813 5816 5819 5821 5823 5825 5827 5829 5831 5833 5835 5837 5838 5840 5842 5843 5845
5719 5722 5724 5726 5727 5729 5731 5734 5736 5738 5741 5743 5746 5749 5752 5755 5758 5761 5764 5768 5771 5774 5777 5780 5783 5786 5789 5792 5795 5798 5800 5803 5806 5809 5812 5814 5817 5819 5821 5823 5825 5827 5829 5831 5833 5835 5836 5838 5840
5708 5710 5712 5714 5716 5717 5719 5722 5724 5727 5730 5732 5735 5738 5741 5744 5747 5751 5754 5758 5761 5764 5768 5771 5774 5777 5780 5783 5787 5789 5792 5795 5798 5801 5804 5807 5810 5812 5814 5817 5819 5821 5823 5825 5827 5829 5831 5833 5834
5697 5699 5700 5702 5704 5706 5708 5710 5713 5716 5718 5720 5723 5726 5729 5732 5736 5740 5744 5747 5751 5754 5758 5761 5764 5767 5771 5774 5777 5781 5784 5787 5790 5793 5796 5799 5802 5804 5807 5810 5812 5814 5816 5819 5821 5823 5825 5826 5828
5687 5687 5688 5690 5692 5694 5697 5698 5701 5703 5705 5708 5711 5714 5717 5720 5724 5728 5732 5736 5739 5743 5747 5750 5754 5757 5760 5764 5767 5771 5774 5778 5781 5783 5787 5790 5793 5796 5799 5802 5804 5807 5809 5811 5814 5816 5818 5820 5822
5676 5676 5677 5679 5680 5682 5684 5686 5689 5690 5693 5696 5699 5701 5705 5708 5712 5715 5719 5723 5727 5731 5735 5739 5742 5746 5749 5752 5756 5760 5764 5768 5771 5774 5777 5780 5784 5787 5790 5793 5796 5799 5801 5804 5806 5809 5811 5813 5815
5667 5667 5668 5668 5669 5670 5672 5674 5677 5678 5681 5684 5686 5689 5692 5696 5699 5703 5707 5711 5714 5718 5722 5726 5730 5733 5737 5740 5744 5748 5752 5756 5760 5764 5767 5771 5774 5778 5781 5784 5787 5790 5793 5796 5798 5801 5804 5806 5808
5658 5658 5658 5659 5659 5660 5661 5663 5664 5667 5669 5671 5674 5676 5680 5683 5686 5690 5694 5698 5701 5705 5709 5713 5716 5720 5724 5728 5732 5736 5740 5744 5748 5752 5756 5760 5764 5767 5771 5774 5778 5781 5784 5787 5790 5792 5795 5798 5800
5649 5649 5649 5649 5649 5650 5651 5652 5653 5655 5657 5659 5662 5664 5667 5670 5673 5676 5680 5684 5688 5691 5695 5699 5703 5707 5711 5715 5720 5724 5729 5733 5737 5741 5744 5748 5753 5757 5760 5764 5767 5771 5774 5777 5780 5783 5786 5789 5792
5641 5641 5640 5640 5640 5640 5641 5642 5643 5644 5646 5648 5650 5652 5655 5657 5660 5663 5667 5671 5675 5679 5682 5686 5690 5694 5698 5702 5706 5711 5716 5720 5725 5729 5732 5736 5741 5744 5748 5752 5756 5760 5764 5767 5771 5774 5777 5780 5782
5633 5633 5632 5631 5631 5631 5632 5631 5632 5634 5635 5637 5639 5641 5643 5645 5648 5651 5654 5658 5662 5666 5670 5674 5678 5682 5686 5689 5694 5698 5703 5708 5712 5716 5720 5725 5728 5732 5737 5741 5745 5749 5753 5756 5760 5763 5766 5769 5772
5626 5625 5625 5623 5623 5623 5623 5622 5623 5624 5625 5627 5628 5630 5632 5634 5637 5640 5643 5646 5650 5654 5658 5661 5665 5669 5673 5677 5681 5685 5690 5695 5699 5704 5708 5713 5716 5720 5725 5729 5733 5737 5741 5745 5749 5752 5756 5759 5762
5618 5618 5617 5616 5615 5615 5615 5614 5614 5614 5616 5617 5618 5620 5621 5624 5626 5629 5632 5635 5638 5642 5645 5649 5653 5657 5660 5664 5668 5672 5677 5682 5687 5691 5696 5700 5705 5709 5712 5716 5721 5725 5729 5733 5737 5741 5744 5748 5751
5612 5611 5609 5607 5606 5607 5607 5605 5606 5606 5607 5608 5609 5610 5612 5613 5616 5618 5621 5624 5627 5630 5633 5637 5641 5645 5648 5652 5656 5660 5665 5669 5674 5679 5683 5688 5692 5696 5700 5704 5709 5713 5717 5721 5725 5729 5733 5737 5740
5605 5604 5603 5601 5599 5599 5598 5598 5599 5598 5598 5599 5599 5601 5602 5603 5605 5607 5610 5612 5615 5618 5621 5625 5628 5632 5636 5640 5644 5648 5652 5656 5661 5665 5670 5675 5679 5683 5687 5691 5696 5700 5704 5708 5712 5717 5721 5724 5728
5599 5597 5597 5595 5593 5592 5591 5591 5591 5590 5590 5590 5591 5591 5592 5593 5595 5597 5599 5601 5604 5607 5610 5612 5616 5620 5623 5627 5631 5635 5639 5643 5648 5652 5657 5661 5666 5670 5674 5678 5683 5687 5691 5695 5699 5704 5708 5712 5716
5594 5592 5591 5588 5586 5584 5584 5584 5584 5583 5582 5583 5582 5582 5583 5584 5585 5586 5588 5590 5592 5595 5597 5600 5603 5607 5610 5614 5618 5622 5626 5630 5635 5639 5643 5648 5652 5656 5661 5664 5669 5673 5677 5682 5686 5691 5696 5700 5704
5589 5587 5584 5582 5581 5579 5577 5580 5577 5576 5575 5574 5574 5574 5574 5575 5576 5576 5578 5579 5581 5583 5585 5588 5590 5594 5597 5601 5604 5608 5612 5617 5621 5626 5630 5634 5638 5642 5646 5650 5655 5659 5664 5668 5673 5678 5683 5687 5691
5583 5581 5579 5577 5575 5573 5571 5574 5570 5568 5567 5567 5566 5566 5566 5566 5566 5567 5568 5569 5570 5571 5573 5575 5578 5580 5583 5587 5591 5595 5599 5604 5608 5612 5616 5621 5625 5629 5633 5636 5641 5645 5650 5654 5659 5664 5669 5674 5678